Location: Ar Ranvel
(48.3000°N, 4.8833°W)
Time: 13:30:00
(UTC+00:00)

Cosmos 1892 Rocket - Pass Details

Date: 16 June 2021
Orbit: 605 x 634 km, 82.5° (Epoch: 04 August)

Event Time Altitude Azimuth Distance (km) Brightness Sun altitude
Exits shadow 23:49:26 34° 201° (SSW) 1,030 4.2 -18.0°
Maximum altitude 23:51:18 75° 280° (W) 651 3.6 -18.0°
Drops below altitude 10° 23:55:46 10° 7° (N) 2,016 7.4 -18.1°
Sets 23:58:02 0° 9° (N) 2,932 8.5 -18.1°
